Hauptseite
METAR-TAF:

METAR-TAF

Flughäfen :

Dübendorf, Schweiz

Militärflugplatz Dübendorf

Breite: 47-23-55N, Länge: 8-38-53E, Höhe: 448 m

Beobachtung

Neuester Wetterbericht von vor 36 Minuten, um 10:50 UTC
Wind 4 kt aus Südwest, variierte zwischen Süd und West
Temperatur 10°C
Luftfeuchtigkeit 57%
Luftdruck 1015 hPa
Sichtweite 10 km oder mehr
Leicht bewölkt in der Höhe von 9000 ft

METAR: LSMD 231050Z 23004KT 190V270 9999 FEW090 10/02 Q1015 RMK BLU+

Zeit: 12:26 (11:26 UTC)


TAF: fehlend

Wetterbeobachtungen und Prognosen von mehr als 4000 Flughäfen (METAR und TAF Bericht).

Die verfügbaren Stationen werden durch gelbe und rote Markierungen auf der Karte dargestellt.

Führen Sie die Maus auf sie, um den Namen der Station zu sehen.

Darauf klicken, um die Beobachtung von Wetterbeobachtungen und Prognosen zu sehen.

Um die Karte zu ändern : klicken Sie auf den grünen Tasten mit einem schwarzen Kreuz Zum Vergrößern, auf den grünen Button mit einem Gedankenstrich zu verkleinern, oder auf die grünen Pfeile für benachbarte Karten.


METAR-TAF: